This is the latest recevied weather packets stored in our database for station/object K6HFP. If no packets are shown the sender has not sent any weather packets the latest 10 day(s).
| Time | Temp. | Humidity | Pressure | Rain* | Wind** | Luminosity | Snow |
|---|---|---|---|---|---|---|---|
| 1777958978 | 10.56° C | 90% | 1013.7 hPa | 0 mm | - | 0 W/m² | - |
| 1777958675 | 10.56° C | 90% | 1013.4 hPa | 0 mm | - | 0 W/m² | - |
| 1777958372 | 10.56° C | 90% | 1013.3 hPa | 0 mm | - | 0 W/m² | - |
| 1777958069 | 10.56° C | 91% | 1013.9 hPa | 0 mm | - | 0 W/m² | - |
| 1777957767 | 10.56° C | 91% | 1013.6 hPa | 0 mm | - | 0 W/m² | - |
| 1777957465 | 10.56° C | 91% | 1013.6 hPa | 0 mm | - | 0 W/m² | - |
| 1777957162 | 10.56° C | 91% | 1013.6 hPa | 0 mm | - | 0 W/m² | - |
| 1777956859 | 10.56° C | 91% | 1013.6 hPa | 0 mm | - | 0 W/m² | - |
| 1777956555 | 10.56° C | 92% | 1013.9 hPa | 0 mm | - | 0 W/m² | - |
| 1777956253 | 10.56° C | 92% | 1013.6 hPa | 0 mm | - | 0 W/m² | - |
| 1777955949 | 10.56° C | 92% | 1013.6 hPa | 0 mm | - | 0 W/m² | - |
| 1777955645 | 10.56° C | 92% | 1013.4 hPa | 0 mm | - | 0 W/m² | - |
| 1777955342 | 10.56° C | 92% | 1013.3 hPa | 1.27 mm | - | 0 W/m² | - |
| 1777955039 | 10.56° C | 93% | 1013.5 hPa | 1.27 mm | - | 0 W/m² | - |
| 1777954736 | 10.56° C | 93% | 1013.3 hPa | 0 mm | - | 0 W/m² | - |
| 1777954432 | 10.56° C | 93% | 1013.5 hPa | 0 mm | - | 0 W/m² | - |
| 1777954130 | 10.56° C | 93% | 1013.4 hPa | 0 mm | - | 0 W/m² | - |
| 1777953827 | 10.56° C | 92% | 1013.1 hPa | 0 mm | - | 0 W/m² | - |
| 1777953524 | 10.56° C | 92% | 1013.3 hPa | 3.05 mm | - | 0 W/m² | - |
| 1777953219 | 10.56° C | 91% | 1013.5 hPa | 4.32 mm | - | 0 W/m² | - |
| 1777952917 | 10.56° C | 91% | 1013.4 hPa | 3.05 mm | - | 0 W/m² | - |
| 1777952613 | 10.56° C | 90% | 1013.5 hPa | 0 mm | - | 0 W/m² | - |
| 1777952311 | 10.56° C | 90% | 1013.4 hPa | 0 mm | - | 0 W/m² | - |
| 1777952008 | 10.56° C | 91% | 1013.3 hPa | 0 mm | - | 0 W/m² | - |
| 1777951706 | 10.56° C | 91% | 1013.3 hPa | 0 mm | - | 0 W/m² | - |
* Rain latest hour (hover to see other rain measurements)
** Current wind speed in m/s (hover to see current wind gust speed)